| time (UTC) | temp F | wind direction | speed MPH | gust MPH | rain 1hr in | rain 24hr in | rain mn in | humidity % | barometer mb |
| 20260506231528 | 50 | 294 | 8.0 | 13.0 | 0.00 | 0.00 | 0.00 | 44 | 1016.8 |
| 20260506230026 | 50 | 325 | 7.0 | 14.0 | 0.00 | 0.00 | 0.00 | 47 | 1016.9 |
| 20260506224520 | 50 | 305 | 5.0 | 13.0 | 0.00 | 0.00 | 0.00 | 46 | 1016.9 |
| 20260506223019 | 50 | 280 | 5.0 | 11.0 | 0.00 | 0.00 | 0.00 | 47 | 1017.0 |
| 20260506221518 | 49 | 275 | 5.0 | 12.0 | 0.00 | 0.00 | 0.00 | 49 | 1017.2 |
| 20260506220023 | 49 | 318 | 7.0 | 12.0 | 0.00 | 0.00 | 0.00 | 48 | 1017.3 |
| 20260506214515 | 49 | 303 | 7.0 | 15.0 | 0.00 | 0.00 | 0.00 | 48 | 1017.5 |
| 20260506213013 | 49 | 246 | 7.0 | 15.0 | 0.00 | 0.00 | 0.00 | 46 | 1017.6 |
| 20260506211519 | 49 | 341 | 6.0 | 16.0 | 0.00 | 0.00 | 0.00 | 45 | 1017.8 |
| 20260506210021 | 49 | 283 | 4.0 | 11.0 | 0.00 | 0.00 | 0.00 | 48 | 1018.0 |
| 20260506204509 | 49 | 328 | 8.0 | 19.0 | 0.00 | 0.00 | 0.00 | 51 | 1018.2 |
| 20260506203007 | 48 | 298 | 10.0 | 19.0 | 0.00 | 0.00 | 0.00 | 50 | 1018.3 |
| 20260506201505 | 48 | 262 | 9.0 | 16.0 | 0.00 | 0.00 | 0.00 | 49 | 1018.5 |
| 20260506194503 | 47 | 325 | 9.0 | 21.0 | 0.00 | 0.00 | 0.00 | 52 | 1018.8 |
| 20260506193002 | 47 | 263 | 11.0 | 17.0 | 0.00 | 0.00 | 0.00 | 50 | 1018.8 |
| 20260506191600 | 47 | 313 | 9.0 | 18.0 | 0.00 | 0.00 | 0.00 | 49 | 1019.0 |
| 20260506190100 | 47 | 269 | 9.0 | 16.0 | 0.00 | 0.00 | 0.00 | 53 | 1019.1 |
| 20260506184610 | 46 | 337 | 6.0 | 14.0 | 0.00 | 0.00 | 0.00 | 50 | 1019.3 |
| 20260506183055 | 46 | 339 | 8.0 | 15.0 | 0.00 | 0.00 | 0.00 | 53 | 1019.4 |
| 20260506181554 | 45 | 313 | 9.0 | 17.0 | 0.00 | 0.00 | 0.00 | 54 | 1019.6 |
| 20260506180054 | 45 | 319 | 8.0 | 18.0 | 0.00 | 0.00 | 0.00 | 54 | 1019.4 |
| 20260506174552 | 45 | 338 | 8.0 | 17.0 | 0.00 | 0.00 | 0.00 | 53 | 1019.6 |
| 20260506173103 | 44 | 307 | 7.0 | 14.0 | 0.00 | 0.00 | 0.00 | 52 | 1019.8 |
| 20260506171552 | 44 | 355 | 6.0 | 13.0 | 0.00 | 0.00 | 0.00 | 55 | 1019.9 |
| 20260506170049 | 43 | 319 | 8.0 | 16.0 | 0.00 | 0.00 | 0.00 | 55 | 1020.1 |
| 20260506164554 | 43 | 272 | 5.0 | 13.0 | 0.00 | 0.00 | 0.00 | 55 | 1020.2 |
| 20260506163046 | 44 | 303 | 4.0 | 17.0 | 0.00 | 0.00 | 0.00 | 54 | 1020.3 |
| 20260506161542 | 43 | 329 | 7.0 | 15.0 | 0.00 | 0.00 | 0.00 | 58 | 1020.1 |
| 20260506160046 | 42 | 277 | 5.0 | 15.0 | 0.00 | 0.00 | 0.00 | 59 | 1020.3 |
| 20260506154542 | 41 | 323 | 7.0 | 15.0 | 0.00 | 0.00 | 0.00 | 59 | 1020.3 |
| 20260506153035 | 41 | 263 | 11.0 | 15.0 | 0.00 | 0.00 | 0.00 | 59 | 1020.4 |
| 20260506151534 | 40 | 325 | 7.0 | 13.0 | 0.00 | 0.00 | 0.00 | 59 | 1020.4 |
| 20260506150029 | 40 | 308 | 4.0 | 13.0 | 0.00 | 0.00 | 0.00 | 61 | 1020.5 |
| 20260506144531 | 39 | 328 | 5.0 | 12.0 | 0.00 | 0.00 | 0.00 | 62 | 1020.6 |
| 20260506143033 | 39 | 301 | 4.0 | 12.0 | 0.00 | 0.00 | 0.00 | 61 | 1020.6 |
| 20260506141526 | 38 | 338 | 6.0 | 11.0 | 0.00 | 0.00 | 0.00 | 63 | 1020.5 |
| 20260506140026 | 38 | 292 | 5.0 | 12.0 | 0.00 | 0.00 | 0.00 | 63 | 1020.5 |
| 20260506134523 | 38 | 345 | 5.0 | 14.0 | 0.00 | 0.00 | 0.00 | 63 | 1020.3 |
| 20260506133024 | 37 | 350 | 5.0 | 11.0 | 0.00 | 0.00 | 0.00 | 63 | 1020.1 |
| 20260506131525 | 37 | 343 | 6.0 | 13.0 | 0.00 | 0.00 | 0.00 | 65 | 1020.1 |
| 20260506130021 | 37 | 333 | 7.0 | 13.0 | 0.00 | 0.00 | 0.00 | 65 | 1020.1 |
| 20260506124516 | 37 | 306 | 8.0 | 13.0 | 0.00 | 0.00 | 0.00 | 67 | 1020.0 |
| 20260506123017 | 37 | 342 | 8.0 | 14.0 | 0.00 | 0.00 | 0.00 | 67 | 1019.9 |
| 20260506121515 | 37 | 334 | 5.0 | 14.0 | 0.00 | 0.00 | 0.00 | 66 | 1019.7 |
| 20260506120009 | 37 | 334 | 7.0 | 12.0 | 0.00 | 0.00 | 0.00 | 67 | 1019.5 |
| 20260506114509 | 37 | 325 | 4.0 | 10.0 | 0.00 | 0.00 | 0.00 | 69 | 1019.3 |
| 20260506113008 | 37 | 323 | 6.0 | 11.0 | 0.00 | 0.00 | 0.00 | 67 | 1019.1 |
| 20260506111502 | 37 | 297 | 5.0 | 10.0 | 0.00 | 0.00 | 0.00 | 69 | 1018.9 |
| 20260506104559 | 37 | 317 | 4.0 | 13.0 | 0.00 | 0.00 | 0.00 | 67 | 1018.6 |
| 20260506103056 | 37 | 346 | 4.0 | 9.0 | 0.00 | 0.00 | 0.00 | 66 | 1018.6 |
| 20260506101555 | 37 | 318 | 4.0 | 10.0 | 0.00 | 0.00 | 0.00 | 66 | 1018.5 |
| 20260506100054 | 37 | 275 | 3.0 | 9.0 | 0.00 | 0.00 | 0.00 | 66 | 1018.4 |
| 20260506094551 | 37 | 20 | 3.0 | 8.0 | 0.00 | 0.00 | 0.00 | 68 | 1018.4 |
| 20260506093053 | 37 | 329 | 6.0 | 10.0 | 0.00 | 0.00 | 0.00 | 68 | 1018.3 |
| 20260506091548 | 37 | 329 | 2.0 | 6.0 | 0.00 | 0.00 | 0.00 | 70 | 1018.4 |
| 20260506090048 | 37 | 290 | 3.0 | 10.0 | 0.00 | 0.00 | 0.00 | 70 | 1018.4 |
| 20260506084547 | 37 | 326 | 4.0 | 11.0 | 0.00 | 0.00 | 0.00 | 70 | 1018.3 |
| 20260506083045 | 37 | 355 | 4.0 | 9.0 | 0.00 | 0.00 | 0.00 | 69 | 1018.1 |
| 20260506081543 | 38 | 343 | 4.0 | 9.0 | 0.00 | 0.00 | 0.00 | 68 | 1017.9 |
| 20260506073038 | 38 | 336 | 4.0 | 11.0 | 0.00 | 0.00 | 0.00 | 66 | 1018.2 |
| 20260506071547 | 38 | 333 | 2.0 | 6.0 | 0.00 | 0.00 | 0.00 | 66 | 1018.2 |
| 20260506061535 | 38 | 5 | 4.0 | 10.0 | 0.00 | 0.00 | 0.00 | 65 | 1018.4 |
| 20260506044522 | 40 | 21 | 2.0 | 8.0 | 0.00 | 0.00 | 0.00 | 60 | 1017.6 |
| 20260506043018 | 40 | 35 | 4.0 | 9.0 | 0.00 | 0.00 | 0.00 | 59 | 1017.4 |
| 20260506041515 | 41 | 5 | 5.0 | 9.0 | 0.00 | 0.00 | 0.00 | 60 | 1017.4 |
| 20260506040016 | 41 | 360 | 5.0 | 13.0 | 0.00 | 0.00 | 0.00 | 61 | 1017.6 |
| 20260506034515 | 41 | 339 | 5.0 | 10.0 | 0.00 | 0.00 | 0.00 | 61 | 1017.5 |
| 20260506033013 | 41 | 321 | 4.0 | 9.0 | 0.00 | 0.00 | 0.00 | 62 | 1017.3 |
| 20260506031516 | 41 | 327 | 4.0 | 11.0 | 0.00 | 0.00 | 0.00 | 62 | 1017.1 |
| 20260506030010 | 41 | 306 | 4.0 | 10.0 | 0.00 | 0.00 | 0.00 | 61 | 1016.9 |
| 20260506024509 | 41 | 327 | 4.0 | 12.0 | 0.00 | 0.00 | 0.00 | 59 | 1016.8 |
| 20260506023006 | 41 | 307 | 5.0 | 13.0 | 0.00 | 0.00 | 0.00 | 58 | 1016.5 |
| 20260506021504 | 41 | 339 | 4.0 | 11.0 | 0.00 | 0.00 | 0.00 | 59 | 1016.2 |
| 20260506020002 | 42 | 321 | 3.0 | 11.0 | 0.00 | 0.00 | 0.00 | 58 | 1016.0 |
| 20260506014604 | 42 | 5 | 6.0 | 13.0 | 0.00 | 0.00 | 0.00 | 57 | 1015.8 |
| 20260506013101 | 42 | 329 | 4.0 | 13.0 | 0.00 | 0.00 | 0.00 | 56 | 1015.7 |
| 20260506011600 | 43 | 321 | 4.0 | 11.0 | 0.00 | 0.00 | 0.00 | 56 | 1015.6 |
| 20260506010100 | 43 | 355 | 4.0 | 14.0 | 0.00 | 0.00 | 0.00 | 55 | 1015.6 |
| 20260506004627 | 43 | 333 | 6.0 | 14.0 | 0.00 | 0.00 | 0.00 | 54 | 1015.5 |
| 20260506003057 | 44 | 13 | 4.0 | 15.0 | 0.00 | 0.00 | 0.00 | 55 | 1015.6 |
| 20260506001559 | 44 | 351 | 5.0 | 13.0 | 0.00 | 0.00 | 0.00 | 54 | 1015.5 |
| 20260506000054 | 44 | 268 | 6.0 | 15.0 | 0.00 | 0.00 | 0.00 | 53 | 1015.5 |
| 20260505234613 | 44 | 341 | 8.0 | 15.0 | 0.00 | 0.00 | 0.00 | 52 | 1015.4 |
| 20260505233052 | 44 | 276 | 7.0 | 17.0 | 0.00 | 0.00 | 0.00 | 52 | 1015.3 |